Time,TemperatureF,DewpointF,PressureIn,WindDirection,WindDirectionDegrees,WindSpeedMPH,WindSpeedGustMPH,Humidity,HourlyPrecipIn,Conditions,Clouds,dailyrainin,SolarRadiationWatts/m^2,SoftwareType,DateUTC
2013-01-03 00:22:00,40.0,-10.0,-100.00,ESE,120,4.0,6.0,11,-99.99,,,-99.99,0.000000,,2013-01-03 08:22:00,
2013-01-03 01:22:00,39.0,-11.0,-100.00,ESE,111,5.0,7.0,11,-99.99,,,-99.99,0.000000,,2013-01-03 09:22:00,
2013-01-03 01:30:00,39.0,-13.0,-100.00,ESE,118,4.0,6.0,10,-99.99,,,-99.99,0.000000,,2013-01-03 09:30:00,
2013-01-03 02:22:00,39.0,-13.0,-100.00,ESE,118,4.0,6.0,10,-99.99,,,-99.99,0.000000,,2013-01-03 10:22:00,
2013-01-03 02:30:00,33.0,-1.0,-100.00,NW,311,2.0,4.0,23,-99.99,,,-99.99,0.000000,,2013-01-03 10:30:00,
2013-01-03 03:22:00,33.0,-1.0,-100.00,NW,311,2.0,4.0,23,-99.99,,,-99.99,0.000000,,2013-01-03 11:22:00,
2013-01-03 03:30:00,33.0,-2.0,-100.00,North,354,1.0,1.0,22,-99.99,,,-99.99,0.000000,,2013-01-03 11:30:00,
2013-01-03 04:22:00,33.0,-2.0,-100.00,North,354,1.0,1.0,22,-99.99,,,-99.99,0.000000,,2013-01-03 12:22:00,
2013-01-03 04:30:00,36.0,-7.0,-100.00,ESE,105,4.0,5.0,15,-99.99,,,-99.99,0.000000,,2013-01-03 12:30:00,
2013-01-03 05:22:00,36.0,-7.0,-100.00,ESE,105,4.0,5.0,15,-99.99,,,-99.99,0.000000,,2013-01-03 13:22:00,
2013-01-03 05:30:00,36.0,-7.0,-100.00,SE,127,3.0,5.0,15,-99.99,,,-99.99,0.000000,,2013-01-03 13:30:00,
2013-01-03 06:22:00,36.0,-7.0,-100.00,SE,127,3.0,5.0,15,-99.99,,,-99.99,0.000000,,2013-01-03 14:22:00,
2013-01-03 06:30:00,35.0,-5.0,-100.00,South,191,4.0,6.0,17,-99.99,,,-99.99,0.000000,,2013-01-03 14:30:00,
2013-01-03 07:22:00,35.0,-5.0,-100.00,South,191,4.0,6.0,17,-99.99,,,-99.99,0.000000,,2013-01-03 15:22:00,
2013-01-03 07:30:00,36.0,-10.0,-100.00,SE,124,4.0,6.0,13,-99.99,,,-99.99,4.000000,,2013-01-03 15:30:00,
2013-01-03 08:22:00,36.0,-10.0,-100.00,SE,124,4.0,6.0,13,-99.99,,,-99.99,4.000000,,2013-01-03 16:22:00,
2013-01-03 08:30:00,40.0,-12.0,-100.00,South,176,5.0,8.0,10,-99.99,,,-99.99,104.000000,,2013-01-03 16:30:00,
2013-01-03 09:22:00,40.0,-12.0,-100.00,South,176,5.0,8.0,10,-99.99,,,-99.99,104.000000,,2013-01-03 17:22:00,
2013-01-03 10:22:00,38.0,-8.0,-100.00,SW,215,2.0,5.0,13,-99.99,,,-99.99,25.000000,,2013-01-03 18:22:00,
2013-01-03 11:30:00,42.0,-5.0,-100.00,WNW,295,1.0,3.0,13,-99.99,,,-99.99,387.000000,,2013-01-03 19:30:00,
2013-01-03 12:22:00,42.0,-5.0,-100.00,WNW,295,1.0,3.0,13,-99.99,,,-99.99,387.000000,,2013-01-03 20:22:00,
2013-01-03 12:30:00,43.0,-6.0,-100.00,WSW,238,3.0,6.0,12,-99.99,,,-99.99,392.000000,,2013-01-03 20:30:00,
2013-01-03 13:22:00,43.0,-6.0,-100.00,WSW,238,3.0,6.0,12,-99.99,,,-99.99,392.000000,,2013-01-03 21:22:00,
2013-01-03 13:30:00,41.0,3.0,-100.00,South,190,5.0,8.0,20,-99.99,,,-99.99,345.000000,,2013-01-03 21:30:00,
2013-01-03 14:22:00,41.0,3.0,-100.00,South,190,5.0,8.0,20,-99.99,,,-99.99,345.000000,,2013-01-03 22:22:00,
2013-01-03 14:30:00,40.0,5.0,-100.00,SW,221,2.0,5.0,23,-99.99,,,-99.99,39.000000,,2013-01-03 22:30:00,
2013-01-03 15:22:00,40.0,5.0,-100.00,SW,221,2.0,5.0,23,-99.99,,,-99.99,39.000000,,2013-01-03 23:22:00,
2013-01-03 15:30:00,41.0,7.0,-100.00,SSW,204,2.0,4.0,24,-99.99,,,-99.99,28.000000,,2013-01-03 23:30:00,
2013-01-03 16:22:00,41.0,7.0,-100.00,SSW,204,2.0,4.0,24,-99.99,,,-99.99,28.000000,,2013-01-04 00:22:00,
2013-01-03 16:30:00,38.0,7.0,-100.00,SSW,197,2.0,4.0,27,-99.99,,,-99.99,12.000000,,2013-01-04 00:30:00,
2013-01-03 17:22:00,38.0,7.0,-100.00,SSW,197,2.0,4.0,27,-99.99,,,-99.99,12.000000,,2013-01-04 01:22:00,
2013-01-03 18:22:00,36.0,8.0,-100.00,SE,129,3.0,4.0,31,-99.99,,,-99.99,0.000000,,2013-01-04 02:22:00,
2013-01-03 21:30:00,36.0,3.0,-100.00,SE,144,2.0,5.0,25,-99.99,,,-99.99,0.000000,,2013-01-04 05:30:00,
2013-01-03 22:22:00,36.0,3.0,-100.00,SE,144,2.0,5.0,25,-99.99,,,-99.99,0.000000,,2013-01-04 06:22:00,
2013-01-03 22:30:00,35.0,0.0,-100.00,South,172,2.0,3.0,22,-99.99,,,-99.99,0.000000,,2013-01-04 06:30:00,
2013-01-03 23:22:00,35.0,0.0,-100.00,South,172,2.0,3.0,22,-99.99,,,-99.99,0.000000,,2013-01-04 07:22:00,